Radiation Dose at Monitoring Post of Fukushima Daini Nuclear Power Station
Date,Time,MP-1(microSv/h),MP-2(microSv/h),MP-3(microSv/h),MP-4(microSv/h),MP-5(microSv/h),MP-6(microSv/h),MP-7(microSv/h),Wind Direction,Wind Velocity(m/s),Rain
2015/09/28,00:00,0.475,0.276,0.494,0.453,0.449,0.223,0.192,north-northwest,3.6,No
2015/09/28,00:10,0.479,0.277,0.493,0.457,0.443,0.221,0.192,north,4.0,No
2015/09/28,00:20,0.474,0.276,0.494,0.452,0.449,0.222,0.192,north-northwest,4.1,No
2015/09/28,00:30,0.479,0.278,0.494,0.457,0.445,0.222,0.191,north-northwest,4.5,No
2015/09/28,00:40,0.476,0.276,0.495,0.453,0.449,0.223,0.192,north-northwest,3.9,No
2015/09/28,00:50,0.480,0.278,0.495,0.456,0.446,0.222,0.192,north-northwest,4.2,No
2015/09/28,01:00,0.477,0.275,0.495,0.454,0.448,0.223,0.191,north-northwest,4.7,No
2015/09/28,01:10,0.481,0.278,0.496,0.457,0.445,0.222,0.192,north-northwest,4.3,No
2015/09/28,01:20,0.476,0.276,0.494,0.454,0.450,0.221,0.191,north-northwest,5.0,No
2015/09/28,01:30,0.478,0.277,0.496,0.456,0.444,0.222,0.192,north-northwest,4.1,No
2015/09/28,01:40,0.477,0.276,0.493,0.454,0.450,0.222,0.191,northwest,2.2,No
2015/09/28,01:50,0.480,0.277,0.494,0.457,0.445,0.222,0.191,west-northwest,1.0,No
2015/09/28,02:00,0.476,0.276,0.493,0.453,0.448,0.221,0.192,-,CALM,No
2015/09/28,02:10,0.479,0.276,0.494,0.455,0.445,0.223,0.191,west-northwest,2.5,No
2015/09/28,02:20,0.474,0.278,0.493,0.455,0.449,0.222,0.191,west,2.3,No
2015/09/28,02:30,0.481,0.276,0.495,0.454,0.446,0.222,0.191,west,1.6,No
2015/09/28,02:40,0.477,0.278,0.493,0.455,0.447,0.222,0.191,west-northwest,2.6,No
2015/09/28,02:50,0.480,0.276,0.495,0.456,0.446,0.222,0.191,west-northwest,3.1,No
2015/09/28,03:00,0.476,0.277,0.492,0.455,0.447,0.222,0.191,north-northwest,1.1,No
2015/09/28,03:10,0.479,0.277,0.494,0.454,0.448,0.222,0.192,west,1.0,No
2015/09/28,03:20,0.477,0.278,0.493,0.455,0.446,0.223,0.191,west,0.9,No
2015/09/28,03:30,0.482,0.277,0.493,0.455,0.447,0.222,0.191,west,1.0,No
2015/09/28,03:40,0.476,0.277,0.495,0.456,0.446,0.220,0.191,west-northwest,0.7,No
2015/09/28,03:50,0.479,0.277,0.494,0.453,0.450,0.221,0.191,-,CALM,No
2015/09/28,04:00,0.477,0.275,0.495,0.456,0.444,0.222,0.191,-,CALM,No
2015/09/28,04:10,0.478,0.277,0.492,0.453,0.448,0.220,0.191,-,CALM,No
2015/09/28,04:20,0.475,0.276,0.495,0.457,0.445,0.222,0.192,north,0.6,No
2015/09/28,04:30,0.479,0.277,0.492,0.452,0.448,0.222,0.192,-,CALM,No
2015/09/28,04:40,0.476,0.278,0.496,0.457,0.444,0.222,0.191,-,CALM,No
2015/09/28,04:50,0.478,0.275,0.491,0.453,0.448,0.222,0.192,-,CALM,No
2015/09/28,05:00,0.478,0.277,0.494,0.455,0.444,0.221,0.191,-,CALM,No
2015/09/28,05:10,0.478,0.275,0.492,0.452,0.449,0.222,0.191,-,CALM,No
2015/09/28,05:20,0.475,0.278,0.494,0.457,0.445,0.222,0.192,east-northeast,1.8,No
2015/09/28,05:30,0.478,0.276,0.493,0.454,0.449,0.221,0.191,east,1.3,No
2015/09/28,05:40,0.477,0.277,0.498,0.456,0.446,0.223,0.191,east-southeast,1.6,No
2015/09/28,05:50,0.477,0.277,0.491,0.453,0.447,0.220,0.192,east,1.4,No
2015/09/28,06:00,0.476,0.277,0.496,0.455,0.445,0.222,0.191,east,0.8,No
2015/09/28,06:10,0.477,0.275,0.491,0.454,0.445,0.221,0.192,east-southeast,1.1,No
2015/09/28,06:20,0.476,0.276,0.496,0.454,0.449,0.221,0.192,east-southeast,0.7,No
2015/09/28,06:30,0.477,0.277,0.493,0.453,0.445,0.221,0.191,east-southeast,0.8,No
2015/09/28,06:40,0.477,0.275,0.496,0.453,0.447,0.221,0.190,east,1.0,No
2015/09/28,06:50,0.477,0.276,0.492,0.454,0.445,0.222,0.192,east,0.6,No
2015/09/28,07:00,0.476,0.275,0.497,0.455,0.445,0.221,0.190,east,0.7,No
2015/09/28,07:10,0.477,0.277,0.491,0.454,0.446,0.222,0.192,east,1.1,No
2015/09/28,07:20,0.476,0.276,0.496,0.454,0.445,0.222,0.190,southeast,0.9,No
2015/09/28,07:30,0.476,0.277,0.491,0.452,0.447,0.222,0.193,south-southeast,0.6,No
2015/09/28,07:40,0.475,0.275,0.496,0.455,0.442,0.221,0.192,east-southeast,0.7,No
2015/09/28,07:50,0.478,0.276,0.490,0.450,0.449,0.223,0.193,east-southeast,1.3,No
2015/09/28,08:00,0.473,0.276,0.495,0.455,0.443,0.220,0.192,east-southeast,1.8,No
2015/09/28,08:10,0.479,0.274,0.494,0.454,0.443,0.221,0.190,east-southeast,1.5,No
2015/09/28,08:20,0.476,0.276,0.489,0.449,0.448,0.221,0.193,southeast,1.1,No
2015/09/28,08:30,0.475,0.276,0.496,0.457,0.443,0.222,0.192,south-southeast,1.5,No
2015/09/28,08:40,0.478,0.275,0.493,0.454,0.444,0.221,0.191,south-southeast,1.3,No
2015/09/28,08:50,0.472,0.277,0.490,0.451,0.448,0.221,0.193,south-southeast,1.6,No
2015/09/28,09:00,0.478,0.277,0.495,0.456,0.444,0.222,0.192,south,2.3,No
2015/09/28,09:10,0.479,0.276,0.490,0.454,0.442,0.222,0.191,south-southeast,1.9,No
2015/09/28,09:20,0.474,0.278,0.495,0.450,0.450,0.220,0.192,south,3.2,No
2015/09/28,09:30,0.477,0.276,0.494,0.455,0.447,0.221,0.190,south-southeast,3.1,No
2015/09/28,09:40,0.477,0.274,0.490,0.455,0.443,0.222,0.191,south,2.2,No
2015/09/28,09:50,0.472,0.277,0.495,0.452,0.444,0.222,0.193,south,2.1,No
2015/09/28,10:00,0.474,0.277,0.491,0.449,0.450,0.221,0.192,south-southeast,3.2,No
2015/09/28,10:10,0.480,0.276,0.490,0.456,0.448,0.222,0.192,south-southeast,3.0,No
2015/09/28,10:20,0.477,0.275,0.499,0.457,0.443,0.223,0.191,south-southeast,2.8,No
2015/09/28,10:30,0.472,0.278,0.494,0.455,0.442,0.222,0.192,south-southeast,2.8,No
2015/09/28,10:40,0.472,0.279,0.489,0.452,0.446,0.223,0.191,south-southeast,3.4,No
2015/09/28,10:50,0.472,0.278,0.492,0.451,0.450,0.222,0.194,south-southeast,3.9,No
2015/09/28,11:00,0.471,0.276,0.495,0.451,0.447,0.224,0.194,south-southeast,4.5,No
2015/09/28,11:10,0.472,0.276,0.493,0.450,0.445,0.223,0.193,south,5.5,No
2015/09/28,11:20,0.474,0.275,0.489,0.451,0.444,0.222,0.193,south,4.6,No
2015/09/28,11:30,0.480,0.275,0.488,0.455,0.444,0.223,0.193,south-southeast,3.5,No
2015/09/28,11:40,0.480,0.278,0.496,0.458,0.443,0.224,0.194,southeast,3.3,No
2015/09/28,11:50,0.479,0.278,0.496,0.460,0.443,0.224,0.195,south-southeast,3.6,No
2015/09/28,12:00,0.476,0.277,0.495,0.455,0.444,0.223,0.195,south,5.0,No
2015/09/28,12:10,0.475,0.278,0.491,0.455,0.450,0.222,0.192,south,6.2,No
2015/09/28,12:20,0.475,0.275,0.492,0.453,0.449,0.222,0.194,south,5.6,No
2015/09/28,12:30,0.473,0.276,0.492,0.453,0.450,0.222,0.192,south,6.0,No
2015/09/28,12:40,0.482,0.276,0.491,0.454,0.447,0.222,0.192,south,6.7,No
2015/09/28,12:50,0.481,0.275,0.491,0.454,0.448,0.223,0.191,south,7.6,No
2015/09/28,13:00,0.479,0.277,0.490,0.453,0.444,0.222,0.192,south,6.3,No
2015/09/28,13:10,0.475,0.275,0.490,0.453,0.445,0.222,0.192,south,6.6,No
2015/09/28,13:20,0.473,0.276,0.492,0.454,0.443,0.224,0.192,south,6.4,No
2015/09/28,13:30,0.482,0.280,0.495,0.461,0.453,0.225,0.194,south,5.4,No
2015/09/28,13:40,0.481,0.280,0.502,0.460,0.452,0.224,0.193,south,5.4,No
2015/09/28,13:50,0.475,0.278,0.496,0.457,0.446,0.224,0.192,south,5.0,No
2015/09/28,14:00,0.481,0.279,0.493,0.457,0.449,0.224,0.194,south,5.2,No
2015/09/28,14:10,0.484,0.280,0.498,0.462,0.451,0.224,0.194,south,5.2,No
2015/09/28,14:20,0.479,0.278,0.497,0.457,0.448,0.223,0.192,south,6.6,No
2015/09/28,14:30,0.476,0.277,0.493,0.455,0.446,0.223,0.194,south,6.2,No
2015/09/28,14:40,0.483,0.279,0.496,0.461,0.452,0.224,0.194,south,6.7,No
2015/09/28,14:50,0.480,0.279,0.498,0.460,0.450,0.224,0.192,south,5.7,No
2015/09/28,15:00,0.475,0.276,0.495,0.455,0.446,0.223,0.193,south,5.9,No
2015/09/28,15:10,0.481,0.279,0.493,0.457,0.446,0.223,0.194,south,5.0,No
2015/09/28,15:20,0.482,0.279,0.499,0.461,0.454,0.223,0.193,south,4.5,No
2015/09/28,15:30,0.476,0.276,0.497,0.456,0.450,0.224,0.193,south,5.2,No
2015/09/28,15:40,0.477,0.279,0.491,0.454,0.445,0.223,0.195,south-southwest,4.8,No
2015/09/28,15:50,0.483,0.279,0.498,0.462,0.448,0.223,0.193,south-southwest,4.7,No
2015/09/28,16:00,0.478,0.276,0.497,0.460,0.453,0.222,0.194,south-southwest,3.9,No
2015/09/28,16:10,0.476,0.277,0.492,0.454,0.448,0.224,0.194,south-southwest,3.3,No
2015/09/28,16:20,0.483,0.281,0.495,0.459,0.445,0.223,0.193,south-southwest,3.6,No
2015/09/28,16:30,0.480,0.277,0.500,0.459,0.452,0.224,0.194,south-southwest,4.0,No
2015/09/28,16:40,0.476,0.279,0.495,0.454,0.449,0.224,0.194,south-southwest,3.1,No
2015/09/28,16:50,0.484,0.278,0.495,0.458,0.444,0.223,0.193,southwest,3.9,No
2015/09/28,17:00,0.479,0.278,0.499,0.460,0.453,0.223,0.194,west-northwest,1.5,No
2015/09/28,17:10,0.477,0.280,0.495,0.455,0.450,0.223,0.195,west,2.0,No
2015/09/28,17:20,0.483,0.277,0.495,0.458,0.445,0.225,0.193,northwest,1.4,No
2015/09/28,17:30,0.476,0.279,0.499,0.459,0.450,0.223,0.195,northwest,2.2,No
2015/09/28,17:40,0.479,0.280,0.494,0.455,0.450,0.223,0.192,west-northwest,3.1,No
2015/09/28,17:50,0.481,0.276,0.499,0.460,0.446,0.225,0.194,west-northwest,3.7,No
2015/09/28,18:00,0.477,0.280,0.497,0.457,0.452,0.223,0.193,west-northwest,4.2,No
2015/09/28,18:10,0.482,0.278,0.494,0.458,0.446,0.225,0.194,northwest,3.9,No
2015/09/28,18:20,0.480,0.280,0.501,0.459,0.452,0.224,0.193,west-northwest,4.7,No
2015/09/28,18:30,0.476,0.278,0.496,0.456,0.450,0.224,0.194,west-northwest,4.4,No
2015/09/28,18:40,0.482,0.278,0.496,0.462,0.449,0.224,0.194,west-northwest,5.9,No
2015/09/28,18:50,0.478,0.280,0.500,0.455,0.453,0.223,0.195,west-northwest,5.4,No
2015/09/28,19:00,0.481,0.277,0.494,0.460,0.446,0.224,0.194,west,5.5,No
2015/09/28,19:10,0.481,0.280,0.499,0.458,0.452,0.222,0.194,west-northwest,3.9,No
2015/09/28,19:20,0.476,0.276,0.497,0.458,0.447,0.226,0.194,northwest,5.3,No
2015/09/28,19:30,0.482,0.281,0.496,0.459,0.450,0.223,0.193,west-northwest,5.5,No
2015/09/28,19:40,0.479,0.278,0.498,0.457,0.450,0.224,0.194,west,6.4,No
2015/09/28,19:50,0.482,0.278,0.495,0.460,0.449,0.224,0.194,west,5.3,No
2015/09/28,20:00,0.482,0.279,0.500,0.455,0.452,0.223,0.194,west,5.1,No
2015/09/28,20:10,0.477,0.277,0.496,0.461,0.445,0.223,0.194,west,4.4,No
2015/09/28,20:20,0.482,0.278,0.497,0.458,0.451,0.224,0.194,west-southwest,4.4,No
2015/09/28,20:30,0.480,0.276,0.501,0.457,0.448,0.223,0.193,west-northwest,4.6,No
2015/09/28,20:40,0.477,0.278,0.494,0.460,0.448,0.223,0.194,northwest,3.9,No
2015/09/28,20:50,0.482,0.279,0.500,0.455,0.452,0.225,0.194,northwest,4.8,No
2015/09/28,21:00,0.476,0.278,0.496,0.459,0.447,0.223,0.194,northwest,4.2,No
2015/09/28,21:10,0.480,0.279,0.495,0.456,0.451,0.224,0.194,west-northwest,4.1,No
2015/09/28,21:20,0.483,0.277,0.500,0.458,0.447,0.224,0.194,west,2.5,No
2015/09/28,21:30,0.477,0.279,0.497,0.458,0.449,0.225,0.194,west-northwest,3.6,No
2015/09/28,21:40,0.482,0.278,0.500,0.457,0.450,0.222,0.194,northwest,3.1,No
2015/09/28,21:50,0.478,0.280,0.498,0.460,0.447,0.225,0.195,northwest,4.7,No
2015/09/28,22:00,0.482,0.279,0.496,0.456,0.451,0.224,0.195,west-northwest,7.0,No
2015/09/28,22:10,0.483,0.278,0.501,0.460,0.445,0.224,0.194,west-northwest,6.8,No
2015/09/28,22:20,0.478,0.279,0.494,0.457,0.451,0.223,0.194,northwest,4.9,No
2015/09/28,22:30,0.485,0.278,0.499,0.460,0.449,0.225,0.196,west-northwest,5.9,No
2015/09/28,22:40,0.478,0.280,0.496,0.459,0.448,0.225,0.195,west-northwest,6.0,No
2015/09/28,22:50,0.480,0.279,0.496,0.455,0.451,0.223,0.196,west-northwest,5.3,No
2015/09/28,23:00,0.483,0.279,0.500,0.460,0.446,0.225,0.194,west-northwest,5.5,No
2015/09/28,23:10,0.478,0.279,0.493,0.456,0.454,0.224,0.195,northwest,6.0,No
2015/09/28,23:20,0.482,0.278,0.500,0.460,0.447,0.225,0.195,northwest,5.7,No
2015/09/28,23:30,0.481,0.279,0.498,0.459,0.449,0.224,0.194,northwest,6.6,No
2015/09/28,23:40,0.478,0.278,0.498,0.457,0.451,0.225,0.194,northwest,5.2,No
2015/09/28,23:50,0.485,0.281,0.501,0.461,0.448,0.223,0.194,northwest,4.3,No
